Wind_Speed
17 19 20 21 22 23 24 25 26 27 29 30 31 32 32 33 33 33 33 34 35 35 35 36 36 35 35 35 35 35 36 36 37 37 38 38 38 38 39 40 41 42 43 44
14 17 18 19 20 22 23 23 24 25 27 28 30 31 32 32 33 33 34 34 35 35 35 35 36 36 35 36 36 36 36 37 38 38 38 38 38 38 39 40 41 41 41 42
11 13 15 16 17 19 22 22 22 23 25 26 28 29 30 31 32 32 33 34 34 34 35 36 36 36 36 36 36 36 37 37 37 37 38 38 38 39 39 39 40 40 40 41
10 11 12 13 14 15 17 19 20 21 22 24 25 27 27 28 30 30 31 32 33 33 34 35 35 35 35 36 36 36 36 36 37 36 36 37 38 38 38 39 39 39 40 40
8 9 9 11 12 14 14 16 17 19 20 22 23 25 25 26 27 28 29 30 31 32 33 33 34 35 35 36 36 36 36 36 35 35 36 36 37 37 37 37 38 38 39 39
6 7 8 8 10 12 13 14 15 16 18 19 21 23 23 24 25 27 28 30 31 31 32 33 33 34 34 35 35 35 35 34 35 35 36 36 35 35 36 36 36 36 37 37
4 5 6 7 8 9 10 11 12 13 15 16 18 20 21 22 23 24 26 28 29 30 31 31 32 33 33 34 34 34 34 34 34 34 34 34 34 34 35 35 35 35 34 34
3 4 5 5 7 8 9 10 11 12 13 13 15 16 17 18 20 21 23 24 26 27 28 29 30 31 32 32 32 32 33 33 33 33 33 33 33 34 34 33 33 33 32 32
2 2 4 5 6 7 8 9 10 11 12 12 12 13 14 15 16 17 19 21 22 24 26 27 28 29 29 30 30 31 31 31 32 32 32 32 32 32 31 31 31 31 31 31
1 2 3 4 6 7 8 9 10 11 12 12 12 12 13 14 15 17 18 19 20 21 22 23 25 26 27 27 28 28 28 29 29 29 29 29 29 28 28 28 28 29 29 29
2 3 4 5 6 7 8 10 10 11 11 12 11 12 13 14 15 16 16 18 18 19 20 22 23 24 24 25 25 26 26 26 27 27 26 26 26 26 27 27 28 29 29 30
3 3 4 5 6 7 8 9 10 10 11 12 13 13 14 14 15 15 16 16 17 17 17 18 19 20 21 22 22 23 23 23 24 24 25 25 26 26 27 27 28 29 29 29
4 4 5 6 7 8 9 10 11 11 12 12 12 13 14 14 14 14 14 15 16 17 17 17 17 18 19 20 20 21 21 22 22 23 23 24 25 26 27 28 29 30 30 30
5 5 6 7 8 8 9 10 11 12 12 12 12 12 13 14 14 15 15 15 16 16 17 17 17 17 18 18 19 20 21 21 22 23 23 24 25 26 28 28 29 30 30 30
7 7 8 8 9 9 9 10 11 12 12 12 12 12 13 14 15 15 16 16 17 18 17 17 17 17 17 18 19 20 20 21 22 23 24 25 26 27 28 29 29 29 29 30
9 10 10 10 11 11 11 11 12 12 13 13 14 14 15 16 16 16 17 17 17 18 18 18 18 18 18 19 19 20 21 22 22 23 24 25 26 27 28 29 29 30 30 31
11 11 11 10 11 11 11 12 13 14 15 15 16 16 17 17 17 17 17 18 18 19 19 19 19 20 20 20 21 21 22 23 24 24 25 27 28 28 29 30 30 31 31 32
13 13 13 13 13 13 14 14 15 16 17 17 18 18 18 18 18 19 19 19 20 20 20 21 21 22 23 23 23 24 24 25 26 26 27 28 29 30 31 31 31 32 32 32
15 16 17 17 17 16 17 18 18 19 19 19 19 20 20 20 20 20 21 22 22 23 23 24 24 25 25 26 26 26 27 28 28 29 29 30 31 31 31 32 32 32 33 33
19 19 20 20 21 20 20 21 22 22 21 21 21 22 22 23 23 22 23 24 24 25 25 26 26 26 27 28 28 28 29 30 30 31 31 31 32 32 32 33 33 34 34 35
22 23 23 24 24 23 24 25 24 24 24 24 24 25 25 25 26 26 26 27 27 28 28 29 29 29 30 30 30 31 31 32 32 33 33 33 33 34 34 35 35 36 36 37
26 27 27 27 27 27 27 27 27 27 27 27 27 27 28 28 29 30 30 30 30 31 30 30 30 31 31 32 32 33 34 34 34 34 35 35 36 36 36 36 37 38 38 39
29 30 31 30 29 30 30 30 30 31 30 30 31 31 31 32 32 33 33 33 33 32 32 32 32 33 33 34 34 34 35 35 35 36 37 37 38 38 38 38 39 39 39 39
31 33 34 34 32 33 33 34 34 34 34 34 34 34 35 34 34 35 35 35 34 34 34 35 35 35 35 36 36 36 36 37 37 37 38 39 39 39 39 39 40 40 40 41
32 35 37 36 35 35 35 36 36 36 37 36 36 37 37 37 36 37 37 36 36 36 36 36 37 37 37 38 38 38 39 39 39 39 40 40 41 41 40 40 40 41 42 42
33 36 38 37 36 36 35 36 37 37 37 38 38 38 38 38 37 37 38 38 38 38 39 38 39 39 39 39 40 40 41 42 42 42 42 42 42 42 41 41 42 42 43 43
Wind_Direction
191 195 198 201 205 208 211 216 220 224 225 228 230 232 234 239 242 244 247 250 253 255 257 259 259 261 263 264 266 268 270 272 273 275 276 278 279 280 280 280 280 279 279 278
185 193 196 200 206 211 212 217 221 226 230 233 234 237 238 241 245 248 250 252 255 257 258 260 261 263 264 266 267 269 271 273 274 276 277 278 278 280 280 280 281 281 280 278
184 189 194 200 205 212 216 219 224 229 233 237 239 241 242 244 247 251 254 255 257 258 260 262 263 264 265 266 267 269 271 273 275 277 278 278 279 281 281 281 281 281 280 280
176 185 195 201 206 212 219 225 229 233 237 240 242 244 245 248 250 253 255 257 259 260 261 263 264 265 266 267 269 271 272 274 276 277 279 280 281 282 282 283 283 282 282 281
177 185 194 203 209 213 221 228 234 237 240 243 246 249 249 252 254 255 257 258 260 261 263 264 265 266 267 269 270 272 273 275 276 277 279 281 283 283 283 284 284 284 283 283
171 188 198 204 211 217 224 231 236 241 245 249 252 256 255 256 258 259 260 261 262 263 265 266 267 268 269 270 271 272 272 274 276 278 280 282 283 283 284 285 286 286 286 285
160 181 196 207 214 219 224 232 238 244 250 257 260 263 262 261 262 264 264 264 264 265 266 267 268 269 269 270 270 271 272 274 277 279 280 282 283 284 285 287 288 289 288 287
149 176 192 206 216 221 229 237 245 253 258 262 265 267 266 267 268 268 269 268 267 267 267 268 269 269 269 269 270 271 273 275 277 279 280 282 284 286 287 289 290 290 288 287
158 189 207 215 223 232 240 247 254 261 263 265 266 269 269 270 272 272 272 272 270 270 269 269 269 270 270 271 271 273 274 275 277 279 280 282 285 287 288 290 291 290 289 289
218 221 224 231 238 246 252 258 263 266 270 270 269 272 273 272 274 276 276 275 275 274 273 272 272 272 272 273 273 274 275 276 278 280 281 283 284 286 288 290 292 292 291 290
314 272 261 257 257 263 265 267 269 271 273 276 277 279 279 278 277 278 278 278 279 279 278 276 275 275 275 276 276 277 277 278 279 279 280 282 285 286 288 290 292 293 292 291
325 308 290 277 274 273 273 273 275 275 278 281 283 285 281 281 280 280 281 281 280 281 281 279 278 278 278 278 279 280 279 279 280 281 281 283 284 286 288 290 292 294 294 294
339 318 305 297 292 286 283 282 280 280 283 286 289 289 285 283 283 282 283 284 284 282 282 283 281 280 282 281 281 280 280 280 282 283 284 286 287 288 289 290 292 293 294 295
344 332 318 307 301 296 290 285 285 286 288 289 292 291 288 287 288 289 287 287 287 287 287 286 285 286 286 285 283 282 281 282 282 284 286 288 288 289 291 292 294 294 294 295
331 327 322 315 309 306 302 293 289 290 292 294 294 293 291 292 293 293 291 289 287 287 286 286 287 289 289 288 287 284 284 285 286 287 289 290 290 291 293 294 295 296 296 296
322 318 315 312 308 307 302 298 294 293 293 294 293 292 292 292 294 296 296 293 290 288 289 287 288 290 290 289 288 287 287 288 289 289 290 292 293 294 295 296 297 297 296 296
319 316 314 312 307 306 302 298 296 295 295 294 294 292 292 293 294 295 295 295 294 291 290 288 288 289 290 290 290 291 290 291 292 292 293 294 295 295 296 298 299 298 297 297
313 310 309 308 306 305 304 301 298 297 297 295 295 295 294 294 294 293 293 293 293 291 289 288 288 288 290 290 291 291 292 292 292 293 295 296 296 297 297 297 298 298 298 298
305 304 303 303 302 303 302 299 297 295 295 294 294 294 293 293 292 290 290 290 291 291 290 290 289 288 288 289 290 291 291 292 292 293 295 296 297 297 298 298 298 299 298 298
300 299 299 299 299 300 299 297 296 295 294 293 293 292 291 290 289 288 288 289 289 290 290 290 290 289 289 289 290 291 291 292 293 294 295 296 297 297 298 299 300 300 300 299
296 296 296 296 296 298 297 295 295 294 295 294 292 291 290 290 290 289 288 289 290 290 290 290 290 290 289 290 290 291 292 293 294 295 295 296 297 297 297 298 299 300 300 300
293 294 294 294 295 296 294 293 292 291 291 291 291 290 289 289 289 289 289 289 288 288 289 290 290 290 290 290 290 290 291 292 293 294 294 295 296 296 297 297 298 299 299 299
291 292 291 292 293 292 290 289 289 288 288 288 288 288 288 288 287 287 288 287 287 287 288 288 289 290 291 291 292 292 292 292 292 293 294 295 295 295 296 296 297 298 299 299
290 290 289 288 289 287 286 286 286 286 286 286 287 287 288 288 287 286 286 286 286 287 287 288 289 290 291 291 291 291 291 292 292 293 294 295 295 295 295 296 296 297 298 298
289 288 287 287 287 284 284 284 284 285 285 286 285 286 287 287 287 286 286 285 285 285 287 288 288 289 290 290 290 290 291 292 292 292 294 295 295 295 295 295 296 297 297 298
287 286 285 286 286 285 285 284 284 284 286 286 287 287 288 288 288 287 286 284 284 284 285 286 287 288 288 289 290 290 291 291 291 291 292 294 294 295 295 295 296 297 297 298
Height
5674 5679 5683 5687 5691 5696 5700 5704 5708 5712 5716 5720 5723 5727 5730 5733 5736 5739 5741 5743 5745 5747 5748 5750 5751 5752 5753 5754 5754 5754 5754 5754 5753 5753 5752 5751 5749 5747 5745 5743 5742 5740 5738 5737
5677 5680 5683 5687 5691 5695 5699 5703 5706 5710 5713 5716 5719 5723 5726 5728 5731 5733 5735 5737 5739 5740 5742 5743 5744 5745 5746 5746 5747 5747 5746 5746 5745 5744 5743 5742 5740 5739 5737 5735 5732 5730 5728 5726
5678 5682 5684 5688 5691 5694 5697 5701 5704 5707 5710 5713 5716 5719 5722 5724 5726 5728 5729 5731 5732 5734 5735 5736 5737 5737 5738 5738 5739 5739 5738 5738 5737 5736 5735 5734 5732 5730 5728 5725 5723 5720 5718 5716
5680 5682 5685 5688 5691 5694 5697 5699 5702 5705 5707 5710 5713 5715 5718 5719 5720 5722 5723 5724 5726 5727 5728 5729 5729 5730 5730 5731 5731 5731 5731 5730 5729 5728 5727 5725 5723 5721 5719 5716 5714 5711 5709 5706
5682 5684 5686 5689 5691 5694 5696 5698 5701 5703 5705 5707 5709 5710 5714 5714 5715 5716 5717 5718 5719 5720 5721 5721 5722 5722 5723 5723 5723 5723 5722 5722 5721 5720 5719 5717 5715 5713 5710 5708 5705 5702 5699 5697
5684 5686 5688 5689 5691 5694 5696 5698 5699 5701 5702 5705 5706 5707 5709 5709 5710 5711 5712 5712 5713 5714 5714 5714 5714 5715 5715 5715 5715 5715 5714 5714 5713 5712 5710 5709 5707 5705 5702 5699 5696 5694 5691 5688
5686 5687 5689 5690 5692 5694 5696 5698 5699 5699 5700 5702 5702 5703 5705 5705 5705 5706 5706 5706 5706 5707 5707 5707 5707 5707 5707 5707 5707 5707 5706 5706 5705 5704 5702 5701 5699 5697 5694 5692 5689 5686 5683 5681
5688 5689 5690 5691 5692 5694 5695 5696 5698 5699 5699 5699 5699 5699 5701 5701 5701 5700 5700 5700 5700 5700 5700 5700 5700 5700 5700 5700 5699 5699 5699 5698 5697 5696 5695 5693 5691 5689 5687 5684 5682 5679 5676 5674
5690 5691 5691 5692 5693 5694 5694 5695 5696 5696 5696 5697 5697 5698 5698 5697 5697 5696 5696 5695 5695 5694 5694 5693 5693 5693 5693 5692 5692 5692 5691 5690 5690 5689 5687 5686 5684 5682 5680 5677 5674 5672 5670 5667
5691 5692 5692 5692 5693 5693 5694 5694 5695 5695 5694 5694 5695 5694 5695 5694 5693 5692 5691 5690 5690 5689 5688 5687 5687 5686 5686 5685 5685 5684 5684 5683 5683 5681 5680 5679 5677 5675 5673 5670 5668 5665 5663 5660
5692 5693 5693 5693 5693 5693 5693 5693 5693 5692 5692 5692 5691 5694 5691 5690 5689 5688 5687 5686 5685 5684 5683 5682 5681 5680 5680 5679 5679 5678 5678 5677 5676 5675 5674 5672 5670 5668 5666 5664 5662 5659 5656 5654
5692 5692 5692 5692 5692 5692 5691 5691 5691 5691 5691 5689 5689 5692 5688 5687 5685 5684 5683 5682 5681 5680 5679 5677 5676 5675 5674 5674 5673 5672 5671 5671 5669 5668 5667 5665 5664 5662 5660 5658 5655 5652 5649 5647
5693 5693 5692 5692 5693 5692 5690 5690 5689 5688 5688 5687 5686 5689 5684 5683 5681 5680 5679 5678 5677 5676 5675 5673 5672 5671 5670 5669 5668 5667 5666 5665 5663 5662 5661 5659 5657 5655 5653 5651 5648 5645 5643 5640
5693 5693 5693 5692 5690 5689 5689 5688 5687 5686 5685 5684 5684 5683 5681 5679 5678 5677 5676 5675 5673 5672 5670 5669 5668 5666 5665 5664 5663 5662 5660 5659 5658 5656 5655 5653 5651 5649 5647 5644 5641 5638 5636 5633
5693 5693 5692 5690 5689 5688 5687 5686 5685 5683 5683 5682 5682 5680 5678 5676 5675 5674 5672 5671 5669 5668 5666 5665 5664 5662 5661 5659 5658 5657 5655 5654 5652 5651 5649 5647 5645 5643 5640 5637 5634 5631 5628 5625
5692 5692 5690 5689 5687 5686 5685 5684 5683 5681 5680 5679 5678 5677 5675 5673 5672 5670 5668 5667 5665 5664 5662 5661 5659 5658 5656 5655 5653 5652 5650 5648 5647 5645 5643 5641 5638 5636 5633 5630 5627 5624 5621 5618
5691 5689 5688 5687 5686 5684 5684 5682 5680 5679 5678 5676 5674 5674 5671 5670 5668 5666 5664 5663 5661 5659 5658 5656 5655 5653 5652 5650 5648 5647 5645 5643 5641 5639 5637 5634 5632 5629 5626 5623 5620 5616 5613 5610
5689 5687 5686 5685 5684 5682 5683 5679 5677 5676 5674 5672 5670 5669 5668 5666 5664 5662 5660 5659 5657 5655 5653 5651 5650 5648 5647 5645 5643 5641 5639 5637 5635 5633 5630 5627 5625 5622 5619 5616 5612 5609 5605 5602
5686 5685 5683 5682 5680 5679 5679 5676 5673 5672 5670 5668 5666 5665 5663 5661 5660 5658 5656 5654 5652 5650 5648 5646 5644 5643 5641 5639 5637 5635 5633 5630 5628 5626 5623 5620 5617 5614 5611 5607 5604 5601 5597 5594
5683 5681 5680 5677 5675 5675 5675 5671 5668 5667 5665 5664 5661 5660 5658 5656 5655 5654 5651 5648 5646 5644 5642 5640 5638 5636 5634 5632 5630 5628 5625 5623 5621 5618 5615 5612 5609 5606 5602 5599 5596 5592 5588 5585
5679 5676 5675 5672 5670 5670 5668 5665 5663 5662 5661 5658 5655 5654 5652 5650 5649 5647 5644 5642 5640 5638 5636 5633 5631 5629 5627 5625 5623 5620 5618 5615 5613 5610 5607 5603 5600 5597 5593 5590 5587 5583 5579 5575
5673 5671 5669 5666 5665 5666 5661 5658 5657 5655 5653 5651 5649 5647 5645 5643 5641 5639 5637 5635 5633 5631 5628 5626 5624 5622 5619 5617 5614 5612 5609 5607 5604 5601 5598 5595 5591 5588 5584 5580 5577 5573 5569 5565
5666 5664 5661 5660 5661 5657 5653 5651 5649 5647 5645 5643 5641 5639 5637 5635 5633 5631 5629 5627 5625 5622 5620 5618 5616 5613 5611 5608 5605 5603 5600 5597 5594 5591 5588 5585 5581 5578 5574 5570 5566 5563 5558 5554
5659 5655 5652 5651 5651 5648 5644 5642 5640 5638 5636 5634 5632 5630 5628 5626 5624 5622 5620 5618 5616 5614 5611 5609 5607 5604 5601 5598 5596 5593 5590 5587 5584 5581 5578 5574 5571 5567 5563 5559 5556 5552 5548 5543
5650 5645 5642 5641 5641 5638 5636 5633 5630 5628 5626 5624 5622 5620 5618 5616 5614 5612 5610 5608 5606 5604 5602 5599 5597 5594 5591 5588 5586 5583 5579 5576 5574 5570 5567 5563 5560 5556 5552 5548 5544 5540 5536 5532
5640 5635 5632 5631 5629 5627 5626 5623 5620 5618 5617 5614 5613 5611 5608 5606 5604 5602 5600 5597 5595 5593 5590 5588 5586 5583 5580 5578 5575 5572 5569 5566 5562 5559 5555 5552 5548 5544 5541 5537 5533 5528 5524 5520